NOAA 16 DEB, 41084

Orbit data source: Space-Track

NOAA 16 DEB, 41084 is space debris in SSO originally from a launch on Thu, 21 Sep 2000 UTC launched from the Air Force Western Test Range (AFWTR). Debris objects in space refer to the collection of defunct objects orbiting the Earth. Examples of debris include non-operational satellites, rocket bodies, and fragments generated from explosions, collisions, or faulty payload assembly.

Loading next visibility...
Identifier
41084, 2000-055AT
Orbit
SSO
Last TLE update
18 hours ago
Origin
Manufacturer
Unknown
Mission
Spacecraft
Bus & Motor
Unknown
Mass
Unknown
Launch date (UTC)
2000-09-21 (25 years ago)
Launch vehicle
Unknown
Launch site
Air Force Western Test Range (AFWTR)
Object type
Payload
Rocket body
Debris
Shape & HBR
Unknown
Radar Cross Section
Small (<0.1 m²)

Expand to show TLE details & history

TLE from 18 hours ago
0 NOAA 16 DEB
1 41084U 00055AT  25191.74790721  .00000847  00000-0  39882-3 0  9994
2 41084  98.7108 277.3199 0017529 129.3320 230.9414 14.22514236497603
Epoch: 2025-07-10T17:56Z
TLE epoch observation values (Epoch: 2025-07-10T17:56:59.182Z)
Latitude
-0.00012°
Longitude
79.16359°
Altitude
827.742 km
Speed
7.435 km/s
True Right ascension
18h 29m 16s
True Declination
0° 00' 00"
Sunlit
Object was in full shadow at epoch
Visualization orbit readout
Latitude
-36.94745°
Longitude
-106.68153°
Altitude
830.83 km
Speed
7.436 km/s
Apparent Right ascension
08h 48m 32s
Apparent Declination
-48° 06' 55"
Sunlit
Object is in daylight
Visualization observer readout
Local Sidereal Time
00:08:55
Azimuth
120.042° SE
Elevation
-53.726°
Doppler factor
1
Orbital elements
Apogee altitude
826.625 km
Perigee altitude
801.411 km
Semi-major axis
7,192.155 km
Eccentricity
0.00175
Inclination
98.7108°
RAAN
277.3199°
Arg. of periapsis
129.332°
True anomaly
Unknown
Mean anomaly
230.9414°
Eccentric anomaly
Unknown
Mean motion
3.5584 °/min
Orbital period
101.17 mins
BSTAR
0.00039882
Loading maneuver chart data...
Loading SW <> Apogee altitude chart data...
Loading historical data...
Loading historical data...
Loading historical data...
Loading historical data...
Loading historical data...
Loading historical data...
Loading historical data...

NOAA 16 DEB Visibility forecast

Observer location: undefined°, undefined°

Span
Click to sort rows by Start time (UTC) header in descending order
Start Az.
Max El. time (UTC)
Max El. Az.
Max El.
End time (UTC)
End Az.
9 mins2025-07-11 18:09:49.343Z26.654° NE2025-07-11 18:14:49.343Z112.184° ESE36.425°2025-07-11 18:18:49.343Z171.454° S
6 mins2025-07-11 19:51:49.343Z329.205° NNW2025-07-11 19:53:49.343Z301.118° NW19.778°2025-07-11 19:57:49.343Z249.781° W
8 mins2025-07-12 05:31:49.343Z156.279° SSE2025-07-12 05:35:49.343Z40.127° NE43.57°2025-07-12 05:39:49.343Z351.12° N
|